Regional Weather Roundup
Issued by NWS

Home | Current Version | Previous Version | Graphics & Text | Print | Product List | Glossary On
Versions: 1 2 3 4 5 6 7 8 9 10 11 12 13 14 15 16 17 18 19 20 21 22 23 24 25 26 27 28 29 30 31 32 33 34 35 36 37 38 39 40 41 42 43 44 45 46 47 48 49 50
000
ASUS43 KMKX 250521
RWRWI

WISCONSIN REGIONAL WEATHER ROUNDUP
NATIONAL WEATHER SERVICE MILWAUKEE/SULLIVAN WI
1200 AM CDT MON MAY 25 2015

NOTE: "FAIR" INDICATES FEW OR NO CLOUDS BELOW 12,000 FEET WITH NO
SIGNIFICANT WEATHER AND/OR OBSTRUCTIONS TO VISIBILITY.

WIZ001-002-006>008-014>016-023>028-250600-
NORTHWEST WISCONSIN

CITY           SKY/WX    TMP DP  RH WIND       PRES   REMARKS
SUPERIOR ARPT  LGT RAIN  56  55  97 NE5       29.89S
ASHLAND        CLOUDY    58  58 100 NE3       29.90F FOG
HAYWARD        LGT RAIN  58  55  90 E6        29.87F
SIREN          LGT RAIN  58  57  96 E6        29.84F
CUMBERLAND     DRIZZLE   55  54  94 E9        29.84F
RICE LAKE      DRIZZLE   57  55  91 E9        29.86F
CHETEK         DRIZZLE   57  56  98 E9        29.84F
LADYSMITH      DRIZZLE   57  56  97 E6        29.88F
EAU CLAIRE     CLOUDY    57  55  93 VRB6      29.82F
MENOMONIE      CLOUDY    58  57  97 E8        29.83S
NEW RICHMOND   LGT RAIN  57  57 100 E9        29.81F
OSCEOLA        DRIZZLE   58  58 100 E8        29.83F
$$

WIZ003>005-009-010-017-018-250600-
NORTH CENTRAL WISCONSIN

CITY           SKY/WX    TMP DP  RH WIND       PRES   REMARKS
MANITOWISH WTR CLOUDY    56  56 100 E6        29.92F
ARBOR VITAE    DRIZZLE   57  55  95 E7        29.92F
WOODRUFF       DRIZZLE   57  55  95 E7        29.92F
RHINELANDER    RAIN      55  54  96 E9        29.92F FOG
EAGLE RIVER    LGT RAIN  55  55  99 E6        29.93F
LAND O LAKES   LGT RAIN  56  56  98 SE3       29.95F
PHILLIPS       DRIZZLE   55  55 100 E5        29.89F
TOMAHAWK       LGT RAIN  55  54  95 E5        29.91F
MEDFORD        DRIZZLE   54  54  99 E7        29.87F
MERRILL        DRIZZLE   56  56 100 SE7       29.91F
$$

WIZ029-030-035-036-043>047-250600-
CENTRAL WISCONSIN

CITY           SKY/WX    TMP DP  RH WIND       PRES   REMARKS
WAUSAU         LGT RAIN  55  54  96 E12       29.88F
MOSINEE        DRIZZLE   54  54 100 E9        29.90F
MARSHFIELD     LGT RAIN  57  54  89 E10       29.87F FOG
STEVENS POINT  LGT RAIN  53  53  98 E9        29.89F
WAUPACA        LGT RAIN  58  57  98 E6        29.90F
WAUTOMA        CLOUDY    57  57 100 E6        29.89F FOG
WISC RAPIDS    LGT RAIN  57  54  89 E9        29.87F
CAMP DOUGLAS   CLOUDY    57  57 100 SE9       29.83F
$$

WIZ011>013-019>022-031-037>040-048>050-250600-
NORTHEAST WISCONSIN

CITY           SKY/WX    TMP DP  RH WIND       PRES   REMARKS
ANTIGO         LGT RAIN  54  54  99 E9        29.93F
SHAWANO        DRIZZLE   57  56  95 E9        29.93F
OCONTO         CLOUDY    55  55 100 E6        29.93F
STURGEON BAY   CLOUDY    57  54  88 E7        29.97F
GREEN BAY      LGT RAIN  58  57  97 E7        29.92F FOG
MANITOWOC      RAIN      54  54 100 SE9       29.94F
APPLETON       HVY RAIN  55  55 100 E6        29.91F
CLINTONVILLE   LGT RAIN  55  54  94 E6        29.92F
OSHKOSH        LGT RAIN  58  56  93 SE5       29.89F
$$

WIZ032>034-041-042-053>061-250600-
SOUTHWEST WISCONSIN

CITY           SKY/WX    TMP DP  RH WIND       PRES   REMARKS
LA CROSSE      HVY RAIN  60  57  89 E3        29.79F FOG
SPARTA         CLOUDY    57  56  94 E5        29.82F
VIROQUA        CLOUDY    58  58 100 E14       29.81F
BOSCOBEL       CLOUDY    61  58  90 NE3       29.82F FOG
PRAIRIE DU CHI CLOUDY    63  61  92 E7        29.79S FOG
PLATTEVILLE    CLOUDY    63  62  97 E10       29.83S
$$

WIZ056-057-062-063-064-067-068-250600-
SOUTH CENTRAL WISCONSIN

CITY           SKY/WX    TMP DP  RH WIND       PRES   REMARKS
REEDSBURG      CLOUDY    57  57  99 E3        29.85F FOG
BARABOO/DELLS  CLOUDY    57  55  95 E6        29.86F FOG
LONE ROCK      CLOUDY    60  58  92 E10       29.84F FOG
MINERAL POINT  CLOUDY    63  61  94 SE8       29.84F FOG
MADISON        CLOUDY    60  58  92 SE5       29.86F FOG
MIDDLETON      CLOUDY    60  60  99 SE7       29.87F
WATERTOWN      CLOUDY    58  58 100 SE7       29.89F FOG
MONROE         DRIZZLE   63  63 100 S10       29.86F
JANESVILLE     CLOUDY    64  63  94 SE6       29.87F FOG
$$

WIZ051-052-058>065-066-070>072-250600-
SOUTHEAST WISCONSIN

CITY           SKY/WX    TMP DP  RH WIND       PRES   REMARKS
MILWAUKEE      CLOUDY    58  56  93 CALM      29.91F FOG
WAUKESHA       RAIN      54  54 100 CALM      29.93S
MILWAUKEE/TIMM CLOUDY    55  52  88 CALM      29.91F FOG
RACINE         CLOUDY    61  58  90 CALM      29.92F
BURLINGTON     CLOUDY    59  58  98 NW13      29.91R FOG
KENOSHA        CLOUDY    62  60  93 SE5       29.90F
FOND DU LAC    LGT RAIN  58  56  93 S9        29.90S
SHEBOYGAN      CLOUDY    54  53  97 E3        29.92F
WEST BEND      LGT RAIN  54  54 100 CALM      29.93S
JUNEAU         CLOUDY    57  56  97 E7        29.90F FOG
$$

LSZ147-162-250600-
LAKE SUPERIOR

STATION/POSITION TIME  TEMP    WIND        PRES    WAVE
                       AIR SEA DIR/SP/G            HT/PER
                 (UTC) (F)     (DEG/KT/KT) (MB)    (FT/S)
W MID LAKE BUOY  0450   44 37  250/  4/  4   N/A     0
DEVILS ISLAND    0500   61     130/  2/  2   N/A
PORT WING        0440   52      50/  9/ 12   N/A
SAXON HARBOR     0440   57        CALM       N/A
$$

LMZ867-665-643>646-250600-
LAKE MICHIGAN

STATION/POSITION TIME  TEMP    WIND        PRES    WAVE
                       AIR SEA DIR/SP/G            HT/PER
                 (UTC) (F)     (DEG/KT/KT) (MB)    (FT/S)
CHAMBERS ISLAND  0400   54      70/  3/  6   N/A
N MID LAKE BUOY  0450   45 36   80/ 10/ 10   N/A     1/ 4
NORTHPORT PIER   0400   50     120/  3/  4   N/A
SISTER BAY       0417   54     110/  8/ 10   N/A
KEWAUNEE LAKESHO 0400   52      40/  8/ 10   N/A
SHEBOYGAN LAKESH 0500   52      30/  3/  3   N/A
PORT WASHINGTON  0440   55     110/  2/  3   N/A
ATWATER BUOY     0400   53 46  320/  2/  6   N/A
MILWAUKEE LAKESH 0400   57     250/  6/ 12   N/A
S MID LAKE BUOY  0450   49 38  170/ 14/ 16   N/A     1
KENOSHA   LAKESH 0500   58     120/  3/  3   N/A
$$

TC  - TEMPERATURE IN CELSIUS
VSB - VISIBILITY IN STATUTE MILES
WCI - WIND CHILL INDEX
HX  - HEAT INDEX



USA.gov is the U.S. government's official web portal to all federal, state and local government web resources and services.